Lexington Weather

Lexington, Massachusetts, USA

45°F
5/12/2021 3:19am 
  • Lexington Conditions: Clear
  • Temperature: 45.1°F / 7.3°CColder 1.5°F than last hour.
  • Dew Point: 31.6°FIncreased 0.9°Fsince last hour.
  • Relative Humidity: 59%Increased 5.0% since last hour.
  • Wind: Wind from W W 1 mph, 10-min avg: 1 mph, gust: 7 mph
  • Barometer: 29.92 in Steady
  • Visibility: 10 miles
  • Rain Today: 0.00 in
  •   

Regional Weather Roundup
for Boston / Norton, MA

        
000
ASUS41 KBOX 092204
RWRBOX

REGIONAL WEATHER ROUNDUP
NATIONAL WEATHER SERVICE BOSTON/NORTON MA
600 PM EDT SUN MAY 09 2021

NOTE:  "FAIR" INDICATES FEW OR NO CLOUDS BELOW 12,000 FEET WITH NO 
SIGNIFICANT WEATHER AND/OR OBSTRUCTIONS TO VISIBILITY.

MAZALL-092300-
EASTERN MASSACHUSETTS
  
CITY           SKY/WX    TMP DP  RH WIND       PRES   REMARKS
BOSTON         CLOUDY    66  29  24 W16       29.87F                  
BEVERLY        PTSUNNY   64  30  27 W10       29.85F                  
LAWRENCE       PTSUNNY   63  32  31 W10       29.87F                  
BEDFORD        PTSUNNY   63  31  30 W10       29.86F                  
BLUE HILL        N/A     62  30  29 W15       29.86F                  
NORWOOD        PTSUNNY   64  31  28 W10       29.87F                  
MARSHFIELD     PTSUNNY   64  41  42 MISG      29.87F                  
PLYMOUTH       PTSUNNY   59  38  45 SW15      29.89F                  
TAUNTON        PTSUNNY   60  38  43 SW14G25   29.90F                  
NEW BEDFORD    PTSUNNY   57  40  52 SW14G22   29.91F                  
$$

MAZALL-092300-
CAPE COD AND THE ISLANDS
  
CITY           SKY/WX    TMP DP  RH WIND       PRES   REMARKS
FALMOUTH       NOT AVBL                                               
HYANNIS        PTSUNNY   56  42  59 SW21G30   29.91S                  
CHATHAM        PTSUNNY   55  45  68 SW8G17    29.94S                  
PROVINCETOWN   PTSUNNY   55  44  66 SW21G28   29.89F                  
NANTUCKET      PTSUNNY   53  45  74 SW21G31   29.96S                  
MARTHAS VNYRD  PTSUNNY   55  40  56 SW12G24   29.94F                  
$$
 
MAZALL-092300-
CENTRAL AND WESTERN MASSACHUSETTS
  
CITY           SKY/WX    TMP DP  RH WIND       PRES   REMARKS
WORCESTER      PTSUNNY   59  30  33 W12       29.89F                  
FITCHBURG      PTSUNNY   62  30  29 SW7       29.88F                  
ORANGE         PTSUNNY   61  30  31 SW8       29.89S                  
SPRINGFIELD    CLOUDY    62  29  28 SW9       29.86F                  
WESTFIELD      CLOUDY    61  30  31 SW15      29.88S                  
NORTH ADAMS    CLOUDY    59  35  40 W7        29.88S                  
PITTSFIELD     CLOUDY    54  35  48 W14       29.89R                  
$$
 
RIZALL-092300-
RHODE ISLAND
  
CITY           SKY/WX    TMP DP  RH WIND       PRES   REMARKS
PROVIDENCE     CLOUDY    61  36  39 SW16G30   29.90F                  
NEWPORT        PTSUNNY   53  42  66 SW9G21    29.92F                  
BLOCK ISLAND   PTSUNNY   51  42  71 SW18      29.96F                  
SMITHFIELD       N/A     61  35  37 SW9G20    29.89F                  
WESTERLY       CLOUDY    54  39  57 SW15G21   29.94F                  
$$
 
CTZALL-092300-
CONNECTICUT
  
CITY           SKY/WX    TMP DP  RH WIND       PRES   REMARKS
BRADLEY INTL   PTSUNNY   61  30  31 SW10      29.89S                  
HARTFORD       CLOUDY    60  36  40 SW10      29.91S                  
BRIDGEPORT     LGT RAIN  55  44  66 SW13      29.96S                  
DANBURY        LGT RAIN  53  41  63 SW8       29.96R                  
GROTON         CLOUDY    54  43  66 SW10G23   29.94F                  
NEW HAVEN      CLOUDY    56  44  64 SW8G17    29.95S                  
CHESTER        FAIR      55  39  54 SW9G16    29.95S                  
MERIDEN        CLOUDY    57  38  48 S14       29.93F                  
WILLIMANTIC    PTSUNNY   60  33  36 SW12G21   29.91F                  
OXFORD         LGT RAIN  53  42  66 SW7       29.95R                  
$$

MEZ002-015-021-024-NHZ003-005-008-011-012-014-VTZ005-008-092300-
NORTHERN NEW ENGLAND
  
CITY           SKY/WX    TMP DP  RH WIND       PRES   REMARKS
PORTLAND ME    PTSUNNY   56  40  55 S14G23    29.83S                  
BANGOR ME      PTSUNNY   63  29  27 W9G17     29.78S                  
CONCORD NH     CLOUDY    60  33  36 W9        29.87S                  
MANCHESTER NH  CLOUDY    64  31  28 W10       29.85S                  
NASHUA NH      PTSUNNY   62  29  28 W10G18    29.87S                  
PORTSMOUTH NH  CLOUDY    62  28  27 W8        29.86S                  
JAFFREY NH     CLOUDY    59  27  29 VRB6      29.88F                  
KEENE NH       CLOUDY    60  29  30 SW6       29.88S                  
BURLINGTON VT  CLOUDY    60  29  30 CALM      29.86S                  
MT. WASHINGTON PTSUNNY   30  27  86 W25         N/A  WCI  16          
$$

NYZ052-076-092300-
EASTERN NEW YORK
  
CITY           SKY/WX    TMP DP  RH WIND       PRES   REMARKS
ALBANY         LGT RAIN  54  37  52 S9        29.90R                  
NEW YORK CITY  LGT RAIN  52  43  71 SW5       29.96F                  
$$
 
ANZALL-092300-
MARINE OBSERVATIONS
  
STATION/POSITION TIME  TEMP    WIND        PRES    VSBY  WAVE
                       AIR SEA DIR/SP/G                  HT/PER
                 (UTC) (F)     (DEG/KT/KT) (MB)    (MI)  (FT/S)
BOSTON BUOY      2140   56 49  240/ 12/ 16 1011.1F
BUZZARDS BAY     2100          230/ 28/ 32 1015.0R
NANTUCKET SOUND  2140      53                N/A
MASS BAY-STELLWA 2104   52     170/ 12/ 14 1010.5R  1 7/8  2/ 3
ISLE OF SHOALS   2100   52     170/ 20/ 22 1010.6R
S OF BLOCK IS    2126      49                N/A           5/ 5
$$

......................KEY.........................
  SKY/WX - SKY CONDITION/PRESENT WEATHER
  TMP    - TEMPERATURE IN FAHRENHEIT
  DWPT   - DEWPOINT IN FAHRENHEIT
  RH     - RELATIVE HUMIDITY IN PERCENT
  WIND   - DIRECTION AND SPEED IN MPH
  PRES   - MEAN SEA LEVEL PRESSURE IN INCHES OF HG
  WCI    - WIND CHILL INDEX
  VSB    - VISIBILITY IN MILES
  HX     - HEAT INDEX
  TC     - TEMPERATURE IN CELSIUS
  VRB    - VARIABLE WIND DIRECTION
  N/A    - NOT AVAILABLE
  
      

Other recent Regional Weather Roundups

Wed May 12, 2:04am

Wed May 12, 1:04am

Wed May 12, 12:05am

Tue May 11, 11:05pm

Tue May 11, 10:04pm

Tue May 11, 9:05pm

Tue May 11, 8:05pm

Tue May 11, 7:04pm

Tue May 11, 6:04pm

Tue May 11, 5:04pm

Tue May 11, 4:05pm

Tue May 11, 3:04pm

Tue May 11, 2:05pm

Tue May 11, 1:04pm

Tue May 11, 12:05pm

Tue May 11, 11:05am

Tue May 11, 10:04am

Tue May 11, 9:04am

Tue May 11, 8:04am

Tue May 11, 7:05am

Tue May 11, 6:04am

Tue May 11, 5:04am

Tue May 11, 4:04am

Tue May 11, 3:04am

Tue May 11, 2:04am

Tue May 11, 1:04am

Tue May 11, 12:04am

Mon May 10, 11:04pm

Mon May 10, 10:04pm

Mon May 10, 9:05pm

Mon May 10, 8:04pm

Mon May 10, 7:05pm

Mon May 10, 6:04pm

Mon May 10, 5:04pm

Mon May 10, 4:04pm

Mon May 10, 3:04pm

Mon May 10, 2:04pm

Mon May 10, 1:04pm

Mon May 10, 12:04pm

Mon May 10, 11:05am

Mon May 10, 10:04am

Mon May 10, 9:04am

Mon May 10, 8:04am

Mon May 10, 7:04am

Mon May 10, 6:04am

Mon May 10, 5:05am

Mon May 10, 4:04am

Mon May 10, 3:04am

Mon May 10, 2:04am

Mon May 10, 1:04am

Mon May 10, 12:04am

Sun May 9, 11:04pm

Sun May 9, 10:04pm

Sun May 9, 9:04pm

Sun May 9, 8:04pm

Sun May 9, 7:05pm

Sun May 9, 5:04pm

Sun May 9, 4:04pm

Sun May 9, 3:04pm

Sun May 9, 2:04pm

Sun May 9, 1:05pm

Sun May 9, 12:04pm

Sun May 9, 11:05am

Sun May 9, 10:04am

Sun May 9, 9:04am

Sun May 9, 8:04am

Sun May 9, 7:04am

Sun May 9, 6:04am

Sun May 9, 5:04am

Sun May 9, 4:04am

Sun May 9, 3:04am

Sun May 9, 2:04am

Sun May 9, 1:05am

Sun May 9, 12:04am

Sat May 8, 11:05pm

Sat May 8, 10:04pm

Sat May 8, 9:05pm

Sat May 8, 8:04pm

Sat May 8, 7:04pm

Sat May 8, 6:04pm

Sat May 8, 5:05pm

Sat May 8, 4:04pm

Sat May 8, 3:05pm

Sat May 8, 2:05pm

Sat May 8, 1:05pm

Sat May 8, 12:04pm

Sat May 8, 11:05am

Sat May 8, 10:04am

Sat May 8, 9:04am

Sat May 8, 8:04am

Sat May 8, 7:04am

Sat May 8, 6:04am

Sat May 8, 5:04am

Sat May 8, 4:04am

Sat May 8, 3:04am

Sat May 8, 2:04am

Sat May 8, 1:05am

Sat May 8, 12:04am

Fri May 7, 11:04pm

Fri May 7, 10:05pm

Fri May 7, 9:04pm

Fri May 7, 8:04pm

Fri May 7, 7:05pm

Fri May 7, 6:04pm

Fri May 7, 5:05pm

Fri May 7, 4:04pm

Fri May 7, 3:04pm

Fri May 7, 2:05pm

Fri May 7, 1:04pm

Fri May 7, 12:04pm

Fri May 7, 11:05am

Fri May 7, 10:04am

Fri May 7, 9:04am

Fri May 7, 8:05am

Fri May 7, 7:04am

Fri May 7, 6:04am

Fri May 7, 5:04am

Fri May 7, 4:04am

Fri May 7, 3:04am

Fri May 7, 2:05am

Fri May 7, 1:04am

Fri May 7, 12:05am

Thu May 6, 11:04pm

Thu May 6, 10:04pm

Thu May 6, 9:05pm

Thu May 6, 8:04pm

Thu May 6, 7:04pm

Thu May 6, 6:04pm

Thu May 6, 5:05pm

Thu May 6, 4:04pm

Thu May 6, 3:04pm

Thu May 6, 2:05pm

Thu May 6, 1:04pm

Thu May 6, 12:04pm

Thu May 6, 11:04am

Thu May 6, 10:04am

Thu May 6, 9:04am

Thu May 6, 8:04am

Thu May 6, 7:04am

Thu May 6, 6:04am

Thu May 6, 5:04am

Thu May 6, 4:04am

Thu May 6, 3:04am

Thu May 6, 2:05am

Thu May 6, 1:04am

Thu May 6, 12:05am

Wed May 5, 11:04pm

Wed May 5, 10:04pm

Wed May 5, 9:05pm

Wed May 5, 8:04pm

Wed May 5, 7:05pm

Wed May 5, 6:04pm

Wed May 5, 5:04pm

Wed May 5, 4:04pm

Wed May 5, 3:04pm

Wed May 5, 2:05pm

Wed May 5, 1:05pm

Wed May 5, 12:04pm

Wed May 5, 11:05am

Wed May 5, 10:04am

Wed May 5, 9:04am

Wed May 5, 8:04am

Wed May 5, 7:04am

Wed May 5, 6:05am

Wed May 5, 5:04am

Wed May 5, 4:04am

Wed May 5, 3:04am

Meta data:

ID: 24b21273-bd01-4f3f-9dcc-d6198bff24ac
Link: https://api.weather.gov/products/24b21273-bd01-4f3f-9dcc-d6198bff24ac